Home > Weather > Schaffhausen > Past weeks

Flag for Switzerland Weather for the Past 2 Weeks in Schaffhausen, Schaffhausen, Switzerland

Now
35 °F

Chilly.


Feels Like: 35 °F
Forecast: 34 / 42 °F
Wind: 2 mph from Southwest

Location: Zurich-Kloten

Current Time: Feb 12, 2016 at 10:18:03 PM

Latest Report: Feb 12, 2016 at 9:00 PM


Visibility: N/A

Pressure: 29.41 "Hg

Humidity: 94%

Dew point: 33 °F

Location of SchaffhausenLocation

Historic Weather in Schaffhausen — Graph

°F

Schaffhausen Temperature Yesterday

Maximum temperature yesterday: 43 °F (at 2:00 PM)
Minimum temperature yesterday: 33 °F (at 8:00 AM)
Average temperature yesterday: 37 °F

High & Low Weather Summary for the Past Weeks

 TemperatureHumidityPressure
High57 °F (Feb 1, 12:00 PM)100% (Jan 30, 6:00 AM)30.51 "Hg (Jan 30, 6:00 AM)
Low30 °F (Feb 6, 3:00 AM)50% (Feb 11, 3:00 PM)29.32 "Hg (Feb 9, 6:00 PM)
Average42 °F81%30.05 "Hg
* Reported Jan 28 9:00 PM — Feb 12 9:00 PM, Schaffhausen, Weather by CustomWeather, © 2016

Note: Actual official high and low records may vary slightly from our data, if they occured in-between our weather recording intervals... More about our weather records

Advertising

Schaffhausen Weather History for the Previous 24 Hours

 ConditionsComfort  
Time TempWeatherWind HumidityBarometerVisibility
9:00 PM
Fri, Feb 12
35 °FChilly.2 mph94%29.41 "HgN/A
8:00 PM34 °FChilly.1 mph96%29.41 "HgN/A
7:00 PM35 °FLight rain. Low clouds.2 mph92%29.41 "Hg3 mi
6:00 PM36 °FChilly.3 mph91%29.41 "HgN/A
5:00 PM37 °FChilly.6 mph86%29.41 "HgN/A
4:00 PM41 °FLight rain. Overcast.10 mph59%29.38 "Hg5 mi
3:00 PM42 °FQuite cool.10 mph60%29.38 "HgN/A
2:00 PM43 °FQuite cool.9 mph58%29.44 "HgN/A
1:00 PM42 °FOvercast.6 mph58%29.47 "Hg12 mi
12:00 PM42 °FQuite cool.7 mph62%29.55 "HgN/A
11:00 AM40 °FQuite cool.5 mph63%29.59 "HgN/A
10:00 AM37 °FHaze.7 mph79%29.64 "Hg6 mi
9:00 AM34 °FChilly.8 mph89%29.68 "HgN/A
8:00 AM33 °FChilly.9 mph91%29.72 "HgN/A
7:00 AM35 °FFog.6 mph90%29.73 "Hg6 mi
6:00 AM34 °FChilly.6 mph92%29.75 "HgN/A
5:00 AM35 °FChilly.5 mph88%29.76 "HgN/A
4:00 AM35 °FLight rain. Low clouds.2 mph87%29.77 "Hg12 mi
Weather by CustomWeather, © 2016

See weather overviewHow to use our weather pages